ARIANE 5 DEB, 48422

Orbit data source: Space-Track

ARIANE 5 DEB, 48422 is space debris in HEO originally from a launch on Fri, 05 Oct 2007 UTC launched from the French Guiana (FRGUI). Debris objects in space refer to the collection of defunct objects orbiting the Earth. Examples of debris include non-operational satellites, rocket bodies, and fragments generated from explosions, collisions, or faulty payload assembly.

Loading next visibility...
Identifier
48422, 2007-044E
Orbit
HEO
Country
Flag of FRFR
Related business
Manufacturer
Unknown
Mission
Spacecraft
Bus & Motor
Unknown
Mass
Unknown
Launch date (UTC)
2007-10-05 (18 years ago)
Launch vehicle
Unknown
Launch site
French Guiana (FRGUI)
Object type
Payload
Rocket body
Debris
Shape & HBR
Unknown
Radar Cross Section
Medium (>0.1 m² and <1 m²)

Expand to show TLE details & history
Last TLE update: 3 days ago

TLE from 3 days ago
0 ARIANE 5 DEB
1 48422U 07044E   25258.26362292  .00000277  00000-0  85248-3 0  9995
2 48422   3.6468 139.6849 7198372 129.8889 319.0064  2.29015973 98627
Epoch: 2025-09-15T06:19Z
TLE epoch observation values (Epoch: 2025-09-15T06:19:37.02Z)
Latitude
0.00001°
Longitude
50.23041°
Altitude
15,448.437 km
Speed
4.486 km/s
True Right ascension
09h 18m 25s
True Declination
0° 00' 00"
Sunlit
Object was in daylight at epoch
Visualization orbit readout
Latitude
Unknown
Longitude
Unknown
Altitude
Unknown
Speed
Unknown
Apparent Right ascension
Unknown
Apparent Declination
Unknown
Sunlit
N/A
Visualization observer readout
Local Sidereal Time
21:21:29
Azimuth
Unknown
Elevation
Unknown
Doppler factor
Unknown
Orbital elements
Apogee altitude
35,444.213 km
Perigee altitude
434.756 km
Semi-major axis
24,317.621 km
Eccentricity
0.71984
Inclination
3.6468°
RAAN
139.6849°
Arg. of periapsis
129.8889°
True anomaly
229.95195°
Mean anomaly
319.0064°
Eccentric anomaly
278.18265°
Mean motion
0.57235 °/min
Orbital period
628.99 mins
BSTAR
0.00085248
Loading maneuver chart data...
Computing Atmospheric mass density...
Loading historical data...
Loading historical data...
Loading historical data...
Loading historical data...
Loading historical data...
Loading historical data...
Loading historical data...
Other satellites on launch #44 in the year 2007 (2007-10-05 UTC)

Documentation

Showing up to 5 results
|